When you browse on this site, cookies collect data to enhance your experience and personalize the content and advertising you see.
Visit our Privacy Policy to learn more. By continuing to use the site, you agree to this use of cookies and data.
  • In Romania
  • List of Countries
  • For 7 days
  • Water Temperature
  • Weather Map
  • Weather Widgets
  • user-avatar
    Login

    Hourly Weather Kanye

    Today, 21 November, Thursday

    Time Temperature Precipitation Wind Pressure Humidity
    00:00 +19°C° 3.9 mm 5 mps 649 mmHg 88%
    01:00 +19°C° 3.9 mm 5 mps 648 mmHg 90%
    02:00 +19°C° 3.9 mm 5 mps 648 mmHg 91%
    03:00 +19°C° 0.2 mm 5 mps 648 mmHg 91%
    04:00 +18°C° 0.2 mm 4 mps 648 mmHg 91%
    05:00 +18°C° 0.2 mm 4 mps 648 mmHg 92%
    06:00 +19°C° 0 mm 5 mps 648 mmHg 89%
    07:00 +20°C° 0 mm 5 mps 649 mmHg 86%
    08:00 +21°C° 0 mm 6 mps 649 mmHg 84%
    09:00 +22°C° 0 mm 5 mps 650 mmHg 77%
    10:00 +25°C° 0 mm 5 mps 650 mmHg 71%
    11:00 +27°C° 0 mm 5 mps 650 mmHg 65%
    12:00 +29°C° 0.1 mm 4 mps 650 mmHg 56%
    13:00 +30°C° 0.1 mm 4 mps 650 mmHg 48%
    14:00 +33°C° 0.1 mm 3 mps 650 mmHg 39%
    15:00 +30°C° 0.6 mm 4 mps 649 mmHg 47%
    16:00 +28°C° 0.6 mm 4 mps 648 mmHg 55%
    17:00 +26°C° 0.6 mm 5 mps 647 mmHg 62%
    18:00 +25°C° 0.3 mm 4 mps 647 mmHg 68%
    19:00 +22°C° 0.3 mm 4 mps 647 mmHg 74%
    20:00 +21°C° 0.3 mm 3 mps 647 mmHg 80%
    21:00 +21°C° 1.2 mm 3 mps 648 mmHg 81%
    22:00 +20°C° 1.2 mm 3 mps 648 mmHg 82%
    23:00 +20°C° 1.2 mm 4 mps 649 mmHg 83%

    Tomorrow, 22 November, Friday

    Time Temperature Precipitation Wind Pressure Humidity
    00:00 +20°C° 0.1 mm 4 mps 649 mmHg 83%
    01:00 +19°C° 0.1 mm 5 mps 648 mmHg 82%
    02:00 +19°C° 0.1 mm 5 mps 648 mmHg 81%
    03:00 +19°C° 0 mm 5 mps 648 mmHg 82%
    04:00 +17°C° 0 mm 5 mps 648 mmHg 82%
    05:00 +17°C° 0 mm 5 mps 648 mmHg 82%
    06:00 +20°C° 0 mm 5 mps 649 mmHg 75%
    07:00 +21°C° 0 mm 5 mps 649 mmHg 69%
    08:00 +23°C° 0 mm 5 mps 650 mmHg 62%
    09:00 +27°C° 0 mm 5 mps 650 mmHg 55%
    10:00 +29°C° 0 mm 5 mps 651 mmHg 48%
    11:00 +33°C° 0 mm 6 mps 651 mmHg 41%
    12:00 +34°C° 0 mm 5 mps 651 mmHg 36%
    13:00 +35°C° 0 mm 5 mps 651 mmHg 32%
    14:00 +36°C° 0 mm 5 mps 650 mmHg 28%
    15:00 +34°C° 0.2 mm 6 mps 649 mmHg 35%
    16:00 +30°C° 0.2 mm 7 mps 648 mmHg 43%
    17:00 +28°C° 0.2 mm 8 mps 647 mmHg 50%
    18:00 +27°C° 0.2 mm 7 mps 648 mmHg 55%
    19:00 +24°C° 0.2 mm 7 mps 648 mmHg 60%
    20:00 +23°C° 0.2 mm 6 mps 648 mmHg 64%
    21:00 +22°C° 0 mm 5 mps 648 mmHg 64%
    22:00 +22°C° 0 mm 4 mps 649 mmHg 64%
    23:00 +21°C° 0 mm 3 mps 649 mmHg 63%

    Day after tomorrow, 23 November, Saturday

    Time Temperature Precipitation Wind Pressure Humidity
    00:00 +21°C° 0 mm 3 mps 648 mmHg 65%
    01:00 +21°C° 0 mm 2 mps 648 mmHg 67%
    02:00 +20°C° 0 mm 2 mps 648 mmHg 69%
    03:00 +20°C° 0 mm 2 mps 648 mmHg 70%
    04:00 +20°C° 0 mm 2 mps 648 mmHg 70%
    05:00 +20°C° 0 mm 3 mps 648 mmHg 71%
    06:00 +21°C° 0 mm 2 mps 649 mmHg 65%
    07:00 +24°C° 0 mm 2 mps 650 mmHg 59%
    08:00 +25°C° 0 mm 2 mps 650 mmHg 53%
    09:00 +27°C° 0 mm 3 mps 651 mmHg 48%
    10:00 +29°C° 0 mm 3 mps 651 mmHg 42%
    11:00 +32°C° 0 mm 4 mps 652 mmHg 36%
    12:00 +34°C° 0 mm 4 mps 651 mmHg 32%
    13:00 +35°C° 0 mm 5 mps 651 mmHg 29%
    14:00 +36°C° 0 mm 5 mps 651 mmHg 25%
    15:00 +35°C° 0.1 mm 5 mps 650 mmHg 29%
    16:00 +33°C° 0.1 mm 5 mps 649 mmHg 33%
    17:00 +32°C° 0.1 mm 4 mps 648 mmHg 37%
    18:00 +29°C° 0 mm 4 mps 648 mmHg 39%
    19:00 +27°C° 0 mm 4 mps 648 mmHg 42%
    20:00 +26°C° 0 mm 3 mps 648 mmHg 44%
    21:00 +26°C° 0 mm 3 mps 649 mmHg 45%
    22:00 +25°C° 0 mm 3 mps 649 mmHg 45%
    23:00 +25°C° 0 mm 3 mps 650 mmHg 46%

    24 November, Sunday

    Time Temperature Precipitation Wind Pressure Humidity
    00:00 +25°C° 0 mm 3 mps 649 mmHg 47%
    01:00 +24°C° 0 mm 3 mps 649 mmHg 48%
    02:00 +24°C° 0 mm 3 mps 649 mmHg 49%
    03:00 +23°C° 0 mm 2 mps 649 mmHg 43%
    04:00 +23°C° 0 mm 2 mps 649 mmHg 37%
    05:00 +22°C° 0 mm 1 mps 649 mmHg 31%
    06:00 +24°C° 0 mm 2 mps 650 mmHg 33%
    07:00 +25°C° 0 mm 2 mps 651 mmHg 34%
    08:00 +27°C° 0 mm 2 mps 651 mmHg 36%
    09:00 +29°C° 0 mm 2 mps 652 mmHg 30%
    10:00 +31°C° 0 mm 2 mps 652 mmHg 24%
    11:00 +34°C° 0 mm 2 mps 653 mmHg 18%
    12:00 +35°C° 0 mm 2 mps 652 mmHg 16%
    13:00 +36°C° 0 mm 3 mps 652 mmHg 15%
    14:00 +37°C° 0 mm 3 mps 651 mmHg 14%
    15:00 +37°C° 0 mm 4 mps 651 mmHg 14%
    16:00 +37°C° 0 mm 4 mps 650 mmHg 13%
    17:00 +36°C° 0 mm 5 mps 650 mmHg 13%
    18:00 +34°C° 0 mm 4 mps 650 mmHg 14%
    19:00 +32°C° 0 mm 4 mps 649 mmHg 16%
    20:00 +30°C° 0 mm 3 mps 649 mmHg 17%
    21:00 +28°C° 0 mm 3 mps 649 mmHg 18%
    22:00 +27°C° 0 mm 2 mps 650 mmHg 18%
    23:00 +26°C° 0 mm 2 mps 650 mmHg 18%

    25 November, Monday

    Time Temperature Precipitation Wind Pressure Humidity
    00:00 +26°C° 0 mm 2 mps 650 mmHg 18%
    01:00 +25°C° 0 mm 2 mps 650 mmHg 18%
    02:00 +25°C° 0 mm 2 mps 650 mmHg 18%
    03:00 +24°C° 0 mm 2 mps 650 mmHg 20%
    04:00 +23°C° 0 mm 2 mps 650 mmHg 22%
    05:00 +21°C° 0 mm 2 mps 650 mmHg 24%
    06:00 +24°C° 0 mm 3 mps 650 mmHg 32%
    07:00 +25°C° 0 mm 3 mps 651 mmHg 41%
    08:00 +27°C° 0 mm 4 mps 652 mmHg 49%
    09:00 +29°C° 0 mm 3 mps 652 mmHg 40%
    10:00 +31°C° 0 mm 3 mps 653 mmHg 32%
    11:00 +34°C° 0 mm 3 mps 653 mmHg 23%
    12:00 +35°C° 0 mm 3 mps 653 mmHg 19%
    13:00 +37°C° 0 mm 3 mps 652 mmHg 15%
    14:00 +38°C° 0 mm 3 mps 652 mmHg 12%
    15:00 +38°C° 0 mm 4 mps 652 mmHg 10%
    16:00 +37°C° 0 mm 5 mps 651 mmHg 9%
    17:00 +37°C° 0 mm 5 mps 651 mmHg 7%
    18:00 +35°C° 0 mm 5 mps 651 mmHg 9%
    19:00 +33°C° 0 mm 4 mps 650 mmHg 10%
    20:00 +29°C° 0 mm 3 mps 650 mmHg 12%
    21:00 +28°C° 0 mm 2 mps 650 mmHg 13%
    22:00 +27°C° 0 mm 2 mps 650 mmHg 15%
    23:00 +26°C° 0 mm 1 mps 650 mmHg 17%

    26 November, Tuesday

    Time Temperature Precipitation Wind Pressure Humidity
    00:00 +25°C° 0 mm 1 mps 650 mmHg 18%
    01:00 +25°C° 0 mm 1 mps 649 mmHg 20%
    02:00 +24°C° 0 mm 1 mps 649 mmHg 21%
    03:00 +24°C° 0 mm 1 mps 649 mmHg 25%
    04:00 +23°C° 0 mm 1 mps 649 mmHg 28%
    05:00 +22°C° 0 mm 1 mps 649 mmHg 31%
    06:00 +24°C° 0 mm 3 mps 650 mmHg 33%
    07:00 +26°C° 0 mm 4 mps 652 mmHg 35%
    08:00 +28°C° 0 mm 6 mps 653 mmHg 37%
    09:00 +30°C° 0 mm 6 mps 653 mmHg 34%
    10:00 +33°C° 0 mm 6 mps 654 mmHg 31%
    11:00 +35°C° 0 mm 6 mps 654 mmHg 27%
    12:00 +36°C° 0 mm 5 mps 653 mmHg 24%
    13:00 +36°C° 0 mm 4 mps 653 mmHg 21%
    14:00 +37°C° 0 mm 3 mps 652 mmHg 17%
    15:00 +36°C° 0 mm 2 mps 652 mmHg 17%
    16:00 +36°C° 0 mm 2 mps 651 mmHg 17%
    17:00 +36°C° 0 mm 2 mps 651 mmHg 17%
    18:00 +35°C° 0 mm 2 mps 651 mmHg 20%
    19:00 +33°C° 0 mm 3 mps 651 mmHg 23%
    20:00 +30°C° 0 mm 4 mps 651 mmHg 27%
    21:00 +29°C° 0 mm 5 mps 651 mmHg 36%
    22:00 +27°C° 0 mm 6 mps 651 mmHg 46%
    23:00 +24°C° 0 mm 6 mps 651 mmHg 56%
    Show more